Weather History for KQIR - July, 2013

Change the Weather History Date:

Thursday, July 4, 2013

  Actual Average Record
Temperature  
Mean Temperature 94 °F -  
Max Temperature 106 °F - - ()
Min Temperature 82 °F - - ()
Cooling Degree Days 29    
Growing Degree Days 44 (Base 50)    
Moisture  
Dew Point 51 °F    
Average Humidity 28    
Maximum Humidity 55    
Minimum Humidity 9    
Precipitation  
Precipitation 0.00 in - - ()
Sea Level Pressure  
Sea Level Pressure 29.47 in    
Wind  
Wind Speed 12 mph ()    
Max Wind Speed 25 mph    
Max Gust Speed 32 mph    
Visibility 6.2 miles    
Events      
T = Trace of Precipitation, MM = Missing Value Source: Averaged Metar Reports

Daily Weather History Graph

Daily Weather History Graph

Search for Another Location

Airport or City:

Trip Planner

Search our weather history database for the weather conditions in past years. The results will help you decide how hot, cold, wet, or windy it might be!

Date:

Astronomy

Jul. 04, 2013 Rise Set
Actual Time 4:49 AM AST 6:28 PM AST
Civil Twilight 4:23 AM AST 6:54 PM AST
Nautical Twilight 3:52 AM AST 7:25 PM AST
Astronomical Twilight 3:20 AM AST 7:57 PM AST
Moon 1:41 AM AST (7/4) 3:19 PM AST (7/4)
Length of Visible Light 14h 31m
Length of Day
13h 39m
Waning Crescent, 13% of the Moon is Illuminated
Jul 4
Waning Crescent
Jul 8
New
Jul 16
First Quarter
Jul 22
Full
Jul 29
Last Quarter

Hourly Weather History & Observations

Time (AST) Temp. Heat Index Dew Point Humidity Pressure Visibility Wind Dir Wind Speed Gust Speed Precip Events Conditions
12:55 AM 83.5 °F - 50.7 °F 32% 29.46 in 6.2 mi West 10.4 mph - N/A   Clear
1:55 AM 84.0 °F 83.8 °F 59.0 °F 43% 29.44 in 6.2 mi West 9.2 mph - N/A   Clear
2:55 AM 82.9 °F 83.7 °F 62.2 °F 49% 29.46 in 6.2 mi West 5.8 mph - N/A   Clear
3:55 AM 84.2 °F 86.3 °F 65.8 °F 54% 29.46 in 6.2 mi NW 10.4 mph - N/A   Clear
4:55 AM 84.4 °F 86.8 °F 66.6 °F 55% 29.46 in 6.2 mi NNW 10.4 mph - N/A   Clear
5:55 AM 86.2 °F 89.4 °F 68.0 °F 54% 29.48 in 6.2 mi NW 11.5 mph - N/A   Clear
6:55 AM 89.8 °F 92.1 °F 65.7 °F 45% 29.50 in 6.2 mi NNW 13.8 mph - N/A   Clear
7:55 AM 94.6 °F 95.9 °F 63.3 °F 35% 29.52 in 6.2 mi NNW 15.0 mph - N/A   Clear
8:55 AM 101.1 °F 99.4 °F 54.0 °F 21% 29.51 in 6.2 mi North 19.6 mph - N/A   Clear
9:55 AM 105.1 °F - 41.7 °F 12% 29.49 in 5.6 mi NNW 25.3 mph 31.1 mph N/A   Haze
10:55 AM 106.0 °F - 41.0 °F 11% 29.50 in 6.2 mi NNW 23.0 mph 32.2 mph N/A   Clear
11:55 AM 106.9 °F - 38.1 °F 10% 29.49 in 6.2 mi North 24.2 mph 28.8 mph N/A   Clear
12:55 PM 106.9 °F - 37.6 °F 9% 29.48 in 6.2 mi NNW 18.4 mph 24.2 mph N/A   Clear
1:55 PM 106.7 °F - 40.1 °F 10% 29.47 in 6.2 mi North 19.6 mph 27.6 mph N/A   Clear
2:55 PM 106.2 °F - 39.7 °F 10% 29.46 in 6.2 mi NNW 19.6 mph 26.5 mph N/A   Clear
3:55 PM 105.8 °F - 35.1 °F 9% 29.45 in 6.2 mi NNW 11.5 mph - N/A   Clear
4:55 PM 104.5 °F - 38.5 °F 10% 29.44 in 6.2 mi NW 17.3 mph - N/A   Clear
5:55 PM 101.3 °F - 36.0 °F 10% 29.46 in 6.2 mi NNW 16.1 mph - N/A   Clear
6:55 PM 97.2 °F - 47.7 °F 18% 29.47 in 6.2 mi NNW 17.3 mph - N/A   Clear
7:55 PM 93.6 °F 91.8 °F 55.9 °F 28% 29.48 in 6.2 mi NNW 11.5 mph - N/A   Clear
8:55 PM 91.2 °F 89.6 °F 57.0 °F 31% 29.49 in 6.2 mi NNW 6.9 mph - N/A   Clear
9:55 PM 86.7 °F 85.1 °F 55.6 °F 34% 29.49 in 6.2 mi WNW 6.9 mph - N/A   Clear
10:55 PM 84.7 °F 83.4 °F 55.0 °F 36% 29.47 in 6.2 mi West 5.8 mph - N/A   Clear
11:55 PM 83.8 °F 83.1 °F 57.0 °F 40% 29.44 in 6.2 mi West 11.5 mph - N/A   Clear